1486076401.16,9358,9.31,73002.0,-4.87,-6.35,-6.09,0,*63
1486076402.37,9359,9.25,72994.5,-4.89,-6.31,-6.09,0,*68
1486076403.56,9360,9.31,72994.0,-4.87,-6.31,-6.09,0,*6C
1486076404.8,9361,9.31,72990.0,-4.89,-6.23,-6.09,0,*60
1486076405.99,9362,9.25,72976.0,-4.87,-6.09,-6.05,0,*69
1486076407.23,9363,9.31,72996.0,-4.89,-6.23,-6.05,0,*6E
1486076408.45,9364,9.31,73002.8,-4.89,-6.09,-6.05,0,*61
1486076409.64,9365,9.25,73008.0,-4.87,-6.09,-6.05,0,*6E
1486076410.85,9366,9.25,73010.3,-4.89,-6.05,-5.97,0,*67
1486076412.04,9367,9.25,73010.3,-4.87,-6.09,-5.97,0,*64
1486076413.25,9368,9.25,73008.3,-4.89,-6.05,-6.05,0,*61
1486076414.43,9369,9.25,73010.5,-4.87,-6.05,-6.05,0,*6E
1486076415.65,9370,9.31,73010.0,-4.87,-6.19,-6.09,0,*67
1486076416.84,9371,9.25,73010.3,-4.87,-6.09,-6.05,0,*6B
1486076418.05,9372,9.31,73024.8,-4.87,-6.19,-6.09,0,*65
1486076419.24,9373,9.31,73026.0,-4.87,-6.09,-6.09,0,*65
1486076420.43,9374,9.25,73024.3,-4.87,-6.05,-5.97,0,*6A
1486076421.64,9375,9.31,73026.0,-4.87,-6.19,-6.09,0,*62
1486076422.86,9376,9.31,73020.8,-4.87,-6.19,-6.09,0,*61
1486076424.07,9377,9.31,73018.0,-4.87,-6.35,-6.23,0,*66
1486076425.29,9378,9.25,73014.5,-4.87,-6.43,-6.23,0,*68
1486076426.5,9379,9.31,73024.5,-4.87,-6.43,-6.23,0,*69
1486076427.74,9380,9.31,73022.0,-4.89,-6.47,-6.23,0,*65
1486076428.96,9381,9.31,73002.0,-4.87,-6.43,-6.19,0,*67
1486076430.17,9382,9.25,72998.5,-4.87,-6.43,-6.23,0,*6D
1486076431.41,9383,9.25,73002.5,-4.89,-6.43,-6.23,0,*62
1486076432.6,9384,9.31,72996.8,-4.87,-6.43,-6.31,0,*68
1486076433.84,9385,9.31,73016.5,-4.89,-6.43,-6.23,0,*64
1486076435.06,9386,9.31,73016.8,-4.87,-6.55,-6.23,0,*6E
1486076436.3,9387,9.25,73014.5,-4.89,-6.77,-6.23,0,*61
1486076437.51,9388,9.31,73024.0,-4.87,-6.73,-6.23,0,*64
1486076438.73,9389,9.25,73006.8,-4.87,-6.59,-6.19,0,*64
1486076439.95,9390,9.31,72996.5,-4.87,-6.59,-6.19,0,*6C
1486076441.17,9391,9.31,72994.8,-4.87,-6.59,-6.19,0,*6D
1486076442.39,9392,9.25,73008.3,-4.89,-6.35,-6.09,0,*6B
1486076443.63,9393,9.25,73000.3,-4.87,-6.23,-6.19,0,*62
1486076444.84,9394,9.31,73016.0,-4.87,-6.23,-6.05,0,*68
1486076446.03,9395,9.31,73020.3,-4.87,-6.09,-5.97,0,*69
1486076447.24,9396,9.31,73024.8,-4.87,-6.19,-6.05,0,*63
1486076448.43,9397,9.25,73022.5,-4.87,-6.09,-5.97,0,*6B
1486076449.65,9398,9.31,73038.5,-4.87,-6.19,-6.05,0,*6D
1486076450.86,9399,9.25,73022.8,-4.87,-6.19,-6.05,0,*6C
1486076452.11,9400,9.31,73018.0,-4.89,-6.35,-6.19,0,*66
1486076453.31,9401,9.31,73018.8,-4.87,-6.43,-6.31,0,*62
1486076454.5,9402,9.31,73026.8,-4.87,-6.43,-6.31,0,*61
1486076455.71,9403,9.31,73032.3,-4.87,-6.47,-6.23,0,*67
1486076456.95,9404,9.31,73016.3,-4.89,-6.47,-6.23,0,*6E
1486076458.15,9405,9.31,73012.0,-4.87,-6.55,-6.31,0,*61
1486076459.34,9406,9.31,73008.8,-4.87,-6.47,-6.31,0,*61
1486076460.54,9407,9.31,72988.3,-4.87,-6.59,-6.31,0,*6F
1486076461.76,9408,9.31,73008.0,-4.89,-6.59,-6.31,0,*6E
1486076462.96,9409,9.25,73006.5,-4.87,-6.59,-6.31,0,*61
1486076464.15,9410,9.31,73018.3,-4.87,-6.73,-6.31,0,*61
1486076465.39,9411,9.25,73012.0,-4.89,-6.59,-6.23,0,*65
1486076466.6,9412,9.31,73018.5,-4.87,-6.73,-6.23,0,*60
1486076467.8,9413,9.25,73028.0,-4.87,-6.77,-6.31,0,*66
1486076468.99,9414,9.31,73008.3,-4.87,-6.85,-6.31,0,*6C
1486076470.2,9415,9.31,73026.0,-4.87,-6.77,-6.23,0,*63
1486076471.42,9416,9.25,73028.8,-4.87,-6.59,-6.19,0,*65
1486076472.63,9417,9.31,73016.0,-4.87,-6.47,-6.23,0,*62
1486076473.82,9418,9.31,73024.5,-4.87,-6.47,-6.09,0,*65
1486076475.01,9419,9.31,73016.3,-4.87,-6.31,-6.09,0,*65
1486076476.25,9420,9.31,73030.8,-4.89,-6.23,-6.05,0,*6E
1486076477.49,9421,9.25,73026.3,-4.89,-6.23,-6.09,0,*63
1486076478.7,9422,9.31,73030.3,-4.87,-6.19,-6.05,0,*6B
1486076479.91,9423,9.31,73026.0,-4.87,-6.19,-6.05,0,*6A
1486076481.13,9424,9.25,73026.0,-4.87,-6.19,-5.97,0,*65
1486076482.34,9425,9.25,73026.3,-4.87,-6.19,-6.05,0,*6C
1486076483.56,9426,9.25,73026.3,-4.87,-6.19,-5.97,0,*67
1486076484.75,9427,9.31,73028.5,-4.87,-6.09,-5.97,0,*67
1486076485.94,9428,9.31,73036.5,-4.87,-6.09,-6.05,0,*60
1486076487.13,9429,9.31,73036.8,-4.87,-6.09,-5.97,0,*69
1486076488.37,9430,9.25,73034.3,-4.85,-6.13,-5.93,0,*6C
1486076489.65,9431,9.31,73030.8,-4.85,-5.93,-5.93,0,*66
1486076490.86,9432,9.31,73026.5,-4.87,-6.05,-5.93,0,*6B
1486076492.05,9433,9.31,73026.0,-4.87,-6.09,-5.97,0,*62
1486076493.24,9434,9.31,73030.0,-4.87,-6.09,-6.05,0,*6D
1486076494.43,9435,9.31,73022.3,-4.87,-6.05,-5.97,0,*68
1486076495.61,9436,9.31,73020.3,-4.87,-6.05,-6.05,0,*63
1486076496.8,9437,9.31,73020.3,-4.87,-5.97,-5.97,0,*62
1486076498.01,9438,9.31,73024.8,-4.85,-6.01,-6.01,0,*6F
1486076499.2,9439,9.31,73030.0,-4.87,-6.05,-6.05,0,*6C
1486076500.39,9440,9.31,73030.8,-4.87,-6.09,-6.05,0,*6E
1486076501.58,9441,9.31,73030.3,-4.87,-6.09,-6.05,0,*6F
1486076502.79,9442,9.31,73034.0,-4.85,-6.05,-6.01,0,*66
1486076504.03,9443,9.31,73024.0,-4.85,-6.05,-5.93,0,*6F
1486076505.27,9444,9.31,73034.5,-4.85,-6.05,-5.93,0,*68
1486076506.49,9445,9.31,73028.3,-4.85,-6.13,-6.01,0,*66
1486076507.73,9446,9.31,73034.0,-4.85,-6.05,-5.93,0,*6A
1486076508.97,9447,9.31,73032.0,-4.85,-6.01,-5.89,0,*64
1486076510.22,9448,9.31,73032.0,-4.85,-6.05,-5.89,0,*6F
1486076511.43,9449,9.31,73034.8,-4.83,-6.13,-5.93,0,*64
1486076512.68,9450,9.31,73030.0,-4.85,-6.01,-5.93,0,*69
1486076513.89,9451,9.31,73030.3,-4.87,-6.19,-5.97,0,*67
1486076515.11,9452,9.31,73030.0,-4.87,-6.19,-5.97,0,*64
1486076516.32,9453,9.31,73032.0,-4.87,-6.19,-5.97,0,*65
1486076517.51,9454,9.31,73036.3,-4.87,-6.09,-5.97,0,*63
1486076518.75,9455,9.31,73038.0,-4.85,-6.05,-5.93,0,*68
1486076519.97,9456,9.31,73042.8,-4.85,-6.13,-6.01,0,*64
1486076521.21,9457,9.31,73038.5,-4.85,-6.13,-5.93,0,*6D
1486076522.46,9458,9.31,73040.3,-4.85,-6.05,-5.93,0,*65
1486076523.7,9459,9.31,73038.3,-4.85,-6.01,-5.93,0,*60
1486076524.97,9460,9.31,73038.5,-4.85,-5.93,-5.89,0,*69
1486076526.25,9461,9.31,73036.3,-4.85,-5.89,-5.81,0,*6B
1486076527.51,9462,9.31,73038.8,-4.85,-5.89,-5.69,0,*6E
1486076528.78,9463,9.31,73036.8,-4.85,-5.89,-5.77,0,*60
1486076530.05,9464,9.31,73038.5,-4.85,-5.89,-5.77,0,*67
1486076531.29,9465,9.31,73042.5,-4.83,-5.77,-5.69,0,*6E
1486076532.56,9466,9.31,73042.8,-4.85,-5.77,-5.69,0,*6B
1486076533.82,9467,9.31,73042.3,-4.81,-5.77,-5.65,0,*62
1486076535.07,9468,9.31,73046.3,-4.83,-5.69,-5.69,0,*6C
1486076536.33,9469,9.31,73046.3,-4.85,-5.81,-5.77,0,*62
1486076537.6,9470,9.31,73050.0,-4.81,-5.85,-5.73,0,*6E
1486076538.87,9471,9.31,73048.3,-4.85,-5.81,-5.77,0,*6B
1486076540.13,9472,9.31,73046.0,-4.85,-5.89,-5.77,0,*60
1486076541.4,9473,9.31,73042.0,-4.85,-5.81,-5.77,0,*69
1486076542.64,9474,9.31,73040.3,-4.83,-5.77,-5.69,0,*6E
1486076543.88,9475,9.31,73044.3,-4.83,-5.81,-5.69,0,*66
1486076545.16,9476,9.31,73046.3,-4.85,-5.93,-5.81,0,*66
1486076546.4,9477,9.31,73046.0,-4.83,-5.89,-5.81,0,*6A
1486076547.65,9478,9.31,73042.0,-4.83,-5.81,-5.89,0,*65
1486076548.88,9479,9.31,73042.5,-4.83,-5.81,-5.77,0,*65
1486076550.13,9480,9.31,73040.0,-4.83,-5.81,-5.77,0,*63
1486076551.37,9481,9.31,73042.0,-4.83,-5.93,-5.89,0,*60
1486076552.62,9482,9.31,73038.8,-4.83,-5.93,-5.89,0,*63
1486076553.87,9483,9.31,73040.5,-4.83,-5.89,-5.81,0,*61
1486076555.1,9484,9.31,73036.3,-4.83,-5.81,-5.77,0,*67
1486076556.35,9485,9.31,73038.8,-4.83,-5.81,-5.81,0,*6F
1486076557.59,9486,9.31,73038.8,-4.83,-5.81,-5.69,0,*6A
1486076558.83,9487,9.31,73038.3,-4.83,-5.89,-5.81,0,*65
1486076560.08,9488,9.31,73044.3,-4.83,-5.89,-5.89,0,*62
1486076561.3,9489,9.31,73042.0,-4.83,-6.01,-5.89,0,*60
1486076562.57,9490,9.31,73050.5,-4.85,-5.89,-5.89,0,*6D
1486076563.81,9491,9.31,73048.0,-4.85,-6.05,-5.89,0,*6B
1486076565.09,9492,9.31,73046.3,-4.85,-5.93,-5.93,0,*6F
1486076566.33,9493,9.31,73042.0,-4.85,-5.93,-6.01,0,*66
1486076567.52,9494,9.31,73046.5,-4.83,-6.01,-6.01,0,*6F
1486076568.77,9495,9.31,73048.5,-4.83,-5.93,-5.93,0,*6E
1486076569.95,9496,9.31,73040.5,-4.83,-6.01,-6.05,0,*69
1486076571.17,9497,9.31,73036.8,-4.85,-6.05,-6.13,0,*6D
1486076572.35,9498,9.31,73040.5,-4.83,-6.05,-6.01,0,*67
1486076573.54,9499,9.31,73038.8,-4.83,-6.13,-6.01,0,*61
1486076574.75,9500,9.31,73040.3,-4.85,-6.05,-6.01,0,*61
1486076575.94,9501,9.31,73032.3,-4.83,-6.13,-6.13,0,*62
1486076577.15,9502,9.31,73026.0,-4.83,-6.27,-6.13,0,*66
1486076578.37,9503,9.31,73012.5,-4.83,-6.19,-6.13,0,*6A
1486076579.6,9504,9.31,73008.0,-4.81,-6.23,-6.13,0,*66
1486076580.82,9505,9.31,73002.8,-4.83,-6.31,-6.19,0,*6C
1486076582.06,9506,9.31,73020.5,-4.85,-6.31,-6.27,0,*64
1486076583.3,9507,9.31,73014.0,-4.83,-6.27,-6.19,0,*69
1486076584.52,9508,9.31,73024.3,-4.83,-6.31,-6.27,0,*6C
1486076585.74,9509,9.31,73016.8,-4.83,-6.51,-6.27,0,*6B
1486076586.96,9510,9.31,73018.8,-4.83,-6.55,-6.19,0,*6A
1486076588.15,9511,9.31,73022.0,-4.83,-6.43,-6.13,0,*66
1486076589.33,9512,9.31,73010.8,-4.83,-6.43,-6.05,0,*62
1486076590.54,9513,9.25,72998.0,-4.83,-6.27,-6.13,0,*66
1486076591.78,9514,9.31,73004.3,-4.85,-6.19,-6.05,0,*6D
1486076592.97,9515,9.25,73014.0,-4.83,-6.05,-6.13,0,*60
1486076594.16,9516,9.31,72988.0,-4.83,-6.13,-6.13,0,*64
1486076595.37,9517,9.31,72998.8,-4.83,-6.27,-6.13,0,*62
1486076596.58,9518,9.31,73000.3,-4.83,-6.27,-6.13,0,*6D
1486076597.82,9519,9.31,73008.3,-4.85,-6.19,-6.13,0,*67
1486076599.03,9520,9.31,73008.3,-4.83,-6.27,-6.05,0,*61
1486076600.27,9521,9.31,73000.8,-4.85,-6.19,-6.13,0,*6C
1486076601.5,9522,9.31,73014.3,-4.85,-6.27,-6.05,0,*65
1486076602.75,9523,9.31,73000.3,-4.85,-6.19,-6.05,0,*69
1486076603.96,9524,9.31,73026.5,-4.85,-6.13,-6.05,0,*64
1486076605.17,9525,9.31,73036.5,-4.85,-6.05,-6.01,0,*66
1486076606.36,9526,9.31,73016.0,-4.83,-6.05,-6.01,0,*63
1486076607.54,9527,9.31,72998.3,-4.83,-6.05,-6.01,0,*62
1486076608.76,9528,9.31,73006.8,-4.85,-6.13,-6.01,0,*6C
1486076609.94,9529,9.31,73004.3,-4.83,-6.05,-6.01,0,*6C
1486076611.18,9530,9.31,72998.8,-4.85,-6.05,-5.93,0,*6A
1486076612.4,9531,9.31,72996.3,-4.85,-6.05,-6.01,0,*63
1486076613.61,9532,9.31,73006.0,-4.85,-6.05,-6.01,0,*60
1486076614.79,9533,9.31,73012.0,-4.83,-6.05,-6.01,0,*67
1486076616.01,9534,9.31,73002.8,-4.83,-6.01,-5.93,0,*6C
1486076617.26,9535,9.31,73002.0,-4.83,-5.93,-5.93,0,*65
1486076618.47,9536,9.31,73004.5,-4.85,-6.01,-6.01,0,*60
1486076619.72,9537,9.31,73016.0,-4.85,-6.01,-5.93,0,*69
1486076620.96,9538,9.31,73028.0,-4.85,-6.01,-5.93,0,*66
1486076622.15,9539,9.31,73016.8,-4.83,-6.01,-6.01,0,*69
1486076623.42,9540,9.31,73016.5,-4.85,-5.93,-5.93,0,*61
1486076624.64,9541,9.31,73018.5,-4.83,-6.01,-5.93,0,*6E
1486076625.91,9542,9.31,73026.0,-4.85,-5.89,-5.81,0,*6B
1486076627.18,9543,9.31,73024.8,-4.85,-5.89,-5.89,0,*62
1486076628.43,9544,9.31,73032.0,-4.83,-5.81,-5.89,0,*6B
1486076629.7,9545,9.31,73028.8,-4.85,-5.93,-5.89,0,*6F
1486076630.98,9546,9.31,73024.0,-4.85,-5.93,-5.89,0,*6C
1486076632.2,9547,9.31,73014.8,-4.83,-6.01,-5.89,0,*63
1486076633.42,9548,9.31,73012.5,-4.83,-5.93,-6.01,0,*67
1486076634.66,9549,9.31,73016.3,-4.85,-6.01,-5.93,0,*60
1486076635.87,9550,9.31,73008.3,-4.83,-6.05,-5.93,0,*6A
1486076637.09,9551,9.31,73004.5,-4.85,-6.05,-6.01,0,*65
1486076638.3,9552,9.31,73014.3,-4.83,-6.05,-5.93,0,*68
1486076639.49,9553,9.31,73014.5,-4.83,-6.01,-6.01,0,*65
1486076640.67,9554,9.31,73028.3,-4.83,-6.05,-6.01,0,*66
1486076641.92,9555,9.31,73030.0,-4.83,-5.93,-5.93,0,*63
1486076643.19,9556,9.31,73026.0,-4.85,-5.89,-5.81,0,*6E
1486076644.43,9557,9.31,73014.5,-4.83,-5.89,-5.89,0,*61
1486076645.68,9558,9.31,73020.3,-4.83,-5.89,-5.81,0,*66
1486076646.93,9559,9.31,73024.8,-4.85,-6.01,-5.89,0,*6A
1486076648.14,9560,9.31,73030.0,-4.83,-6.01,-5.89,0,*66
1486076649.36,9561,9.31,73028.3,-4.83,-6.01,-5.93,0,*6C
1486076650.55,9562,9.31,73018.8,-4.83,-6.05,-6.01,0,*63
1486076651.77,9563,9.31,73018.5,-4.83,-6.01,-5.93,0,*6E
1486076652.98,9564,9.31,73026.5,-4.83,-6.01,-5.93,0,*69
1486076654.23,9565,9.31,73024.0,-4.85,-6.01,-5.93,0,*6E
1486076655.45,9566,9.31,73022.8,-4.83,-6.01,-5.93,0,*6B
1486076656.63,9567,9.31,73018.3,-4.83,-6.13,-6.05,0,*65
1486076657.82,9568,9.31,73014.8,-4.83,-6.31,-6.13,0,*6D
1486076659.04,9569,9.31,73020.5,-4.83,-6.31,-6.19,0,*66
1486076660.26,9570,9.31,73022.5,-4.83,-6.39,-6.19,0,*66
1486076661.48,9571,9.31,73012.8,-4.85,-6.51,-6.39,0,*6D
1486076662.67,9572,9.31,73026.0,-4.83,-6.73,-6.51,0,*66
1486076663.86,9573,9.31,73010.3,-4.83,-6.85,-6.59,0,*66
1486076665.08,9574,9.31,73004.8,-4.83,-6.97,-6.55,0,*6E
1486076666.3,9575,9.31,73014.8,-4.83,-6.97,-6.55,0,*6F
1486076667.51,9576,9.31,73020.0,-4.83,-7.05,-6.55,0,*66
1486076668.73,9577,9.31,73008.8,-4.83,-6.97,-6.55,0,*6D
1486076669.92,9578,9.31,73020.0,-4.83,-7.23,-6.69,0,*63
1486076671.14,9579,9.31,73020.5,-4.83,-7.35,-6.73,0,*6E
1486076672.33,9580,9.31,73016.0,-4.83,-7.49,-6.81,0,*6E
1486076673.58,9581,9.31,73026.8,-4.85,-7.65,-6.81,0,*67
1486076674.8,9582,9.31,73024.3,-4.83,-7.73,-6.85,0,*61
1486076676.04,9583,9.31,73020.3,-4.85,-7.91,-6.81,0,*6E
1486076677.28,9584,9.31,73002.5,-4.85,-7.65,-6.69,0,*64
1486076678.49,9585,9.31,72990.3,-4.83,-7.39,-6.69,0,*6A
1486076679.72,9586,9.31,72986.0,-4.85,-7.31,-6.73,0,*6C
1486076680.94,9587,9.31,73008.5,-4.83,-7.35,-6.73,0,*6F
1486076682.18,9588,9.31,72996.3,-4.85,-7.65,-6.85,0,*6A
1486076683.4,9589,9.31,73014.0,-4.83,-7.87,-6.93,0,*66
1486076684.66,9590,9.31,73002.3,-4.85,-7.99,-6.93,0,*67
1486076685.9,9591,9.31,73010.8,-4.83,-8.11,-6.97,0,*6B
1486076687.12,9592,9.31,72996.5,-4.83,-8.29,-6.97,0,*63
1486076688.33,9593,9.31,73000.3,-4.83,-8.25,-7.05,0,*64
1486076689.53,9594,9.31,73002.0,-4.83,-8.17,-7.05,0,*62
1486076690.8,9595,9.31,73018.5,-4.85,-8.11,-6.93,0,*6D
1486076692.05,9596,9.31,73016.8,-4.83,-8.11,-6.97,0,*6C
1486076693.27,9597,9.31,73020.5,-4.85,-8.29,-7.11,0,*6F
1486076694.5,9598,9.31,73010.8,-4.85,-8.17,-7.05,0,*68
1486076695.72,9599,9.25,73008.8,-4.85,-8.29,-7.11,0,*61
1486076696.94,9600,9.31,73006.8,-4.85,-8.17,-7.11,0,*6F
1486076698.14,9601,9.31,72990.3,-4.83,-8.17,-7.11,0,*68
1486076699.4,9602,9.31,73004.0,-4.85,-8.03,-7.05,0,*6D
1486076700.59,9603,9.31,72984.0,-4.83,-8.25,-7.23,0,*6A
1486076701.81,9604,9.31,72996.3,-4.85,-8.17,-7.19,0,*63
1486076703.01,9605,9.31,72994.5,-4.83,-8.17,-7.23,0,*6D
1486076704.23,9606,9.31,72992.3,-4.85,-8.29,-7.23,0,*65
1486076705.47,9607,9.31,72992.0,-4.85,-8.29,-7.31,0,*67
1486076706.7,9608,9.31,72988.8,-4.85,-8.33,-7.31,0,*63
1486076707.95,9609,9.31,72994.0,-4.85,-8.25,-7.31,0,*65
1486076709.22,9610,9.31,72984.5,-4.85,-8.11,-7.31,0,*6A
1486076710.48,9611,9.31,72992.5,-4.85,-8.03,-7.31,0,*68
1486076711.74,9612,9.31,72996.8,-4.85,-7.91,-7.31,0,*6F
1486076713.01,9613,9.31,73004.8,-4.85,-7.99,-7.39,0,*6E
1486076714.23,9614,9.31,73002.5,-4.83,-8.11,-7.49,0,*67
1486076715.5,9615,9.31,73010.5,-4.85,-8.11,-7.39,0,*67
1486076716.74,9616,9.31,73008.3,-4.85,-8.25,-7.61,0,*6E
1486076717.99,9617,9.31,73004.0,-4.85,-8.29,-7.61,0,*63
1486076719.2,9618,9.31,72994.3,-4.83,-8.33,-7.61,0,*61
1486076720.45,9619,9.31,73012.0,-4.85,-8.29,-7.61,0,*6D
1486076721.69,9620,9.31,73008.5,-4.85,-8.25,-7.61,0,*6B
1486076722.94,9621,9.31,73000.5,-4.85,-8.29,-7.61,0,*66
1486076724.18,9622,9.31,72988.0,-4.85,-8.33,-7.73,0,*6D
1486076725.41,9623,9.31,73008.3,-4.85,-8.33,-7.73,0,*6C
1486076726.65,9624,9.31,73008.8,-4.85,-8.33,-7.65,0,*6C
1486076727.87,9625,9.31,73012.0,-4.87,-8.45,-7.77,0,*6D
1486076729.07,9626,9.31,73008.5,-4.87,-8.45,-7.83,0,*65
1486076730.31,9627,9.31,73000.8,-4.85,-8.45,-7.77,0,*6D
1486076731.56,9628,9.31,72994.8,-4.85,-8.45,-7.73,0,*66
1486076732.8,9629,9.31,72982.3,-4.85,-8.41,-7.73,0,*63
1486076734.02,9630,9.31,72994.5,-4.87,-8.45,-7.91,0,*61
1486076735.23,9631,9.31,72992.8,-4.87,-8.59,-7.95,0,*69
1486076736.47,9632,9.31,72998.5,-4.85,-8.59,-7.91,0,*6C
1486076737.71,9633,9.31,72996.3,-4.85,-8.59,-7.77,0,*65
1486076738.95,9634,9.31,72998.5,-4.85,-8.33,-7.73,0,*6A
1486076740.17,9635,9.31,72988.8,-4.85,-8.33,-7.87,0,*60
1486076741.38,9636,9.31,72976.8,-4.85,-8.33,-7.87,0,*63
1486076742.62,9637,9.31,72974.8,-4.87,-8.51,-8.03,0,*67
1486076743.83,9638,9.31,72982.0,-4.87,-8.45,-8.03,0,*6D
1486076745.05,9639,9.31,72974.5,-4.87,-8.63,-7.95,0,*68
1486076746.27,9640,9.31,72988.8,-4.85,-8.55,-7.87,0,*62
1486076747.49,9641,9.31,73000.3,-4.85,-8.29,-7.87,0,*68
1486076748.72,9642,9.31,73014.0,-4.85,-8.33,-7.99,0,*6F
1486076749.96,9643,9.31,73022.5,-4.85,-8.45,-8.03,0,*63
1486076751.18,9644,9.31,73018.5,-4.85,-8.45,-8.29,0,*6C
1486076752.39,9645,9.31,73010.0,-4.85,-8.45,-8.33,0,*66
1486076753.61,9646,9.31,73012.5,-4.85,-8.45,-8.41,0,*60
1486076754.81,9647,9.31,73026.0,-4.87,-8.85,-8.89,0,*6B
1486076756.05,9648,9.31,73012.5,-4.85,-9.05,-8.81,0,*67
1486076757.29,9649,9.31,72992.0,-4.85,-9.05,-8.81,0,*66
1486076758.51,9650,9.31,73006.0,-4.85,-9.05,-8.85,0,*6A
1486076759.76,9651,9.31,73014.5,-4.85,-9.11,-8.71,0,*65
1486076761.0,9652,9.31,73010.0,-4.85,-8.71,-8.03,0,*64
1486076762.26,9653,9.31,72998.5,-4.85,-8.03,-7.73,0,*68
1486076763.53,9654,9.31,72996.0,-4.85,-8.11,-8.11,0,*67
1486076764.75,9655,9.31,73002.5,-4.85,-8.25,-8.41,0,*64
1486076765.96,9656,9.31,72986.3,-4.85,-8.59,-8.71,0,*6F
1486076767.2,9657,9.31,72988.8,-4.87,-9.11,-9.15,0,*62
1486076768.42,9658,9.31,73004.3,-4.87,-9.67,-9.45,0,*69
1486076769.66,9659,9.31,73008.5,-4.87,-9.83,-9.45,0,*62
1486076770.84,9660,9.31,73014.8,-4.87,-9.97,-9.27,0,*69
1486076772.06,9661,9.31,73004.5,-4.89,-9.93,-9.01,0,*66
1486076773.25,9662,9.31,73022.8,-4.87,-9.71,-8.75,0,*65
1486076774.46,9663,9.31,73012.5,-4.87,-9.57,-8.37,0,*66
1486076775.67,9664,9.31,73014.8,-4.87,-9.19,-8.03,0,*6C
1486076776.88,9665,9.31,72996.3,-4.87,-8.97,-7.69,0,*69
1486076778.11,9666,9.31,73010.3,-4.87,-8.71,-7.43,0,*6A
1486076779.3,9667,9.31,73002.8,-4.87,-8.29,-7.23,0,*60
1486076780.49,9668,9.31,73000.8,-4.87,-7.83,-6.89,0,*61
1486076781.68,9669,9.31,72998.8,-4.87,-7.53,-6.73,0,*68
1486076782.9,9670,9.31,72994.8,-4.87,-7.35,-6.47,0,*67
1486076784.11,9671,9.31,73002.3,-4.87,-6.97,-6.47,0,*6F
1486076785.31,9672,9.31,73012.5,-4.87,-6.73,-6.31,0,*67
1486076786.52,9673,9.31,73020.0,-4.87,-6.47,-6.23,0,*62
1486076787.71,9674,9.31,73016.8,-4.87,-6.47,-6.31,0,*66
1486076788.96,9675,9.31,73008.3,-4.85,-6.43,-6.19,0,*6B
1486076790.2,9676,9.31,73008.0,-4.85,-6.39,-6.27,0,*68
1486076791.44,9677,9.31,73012.5,-4.85,-6.31,-6.19,0,*6C
1486076792.66,9678,9.31,73008.5,-4.85,-6.31,-6.13,0,*69
1486076793.87,9679,9.31,73004.0,-4.85,-6.39,-6.05,0,*67
1486076795.11,9680,9.31,73018.8,-4.85,-6.19,-6.05,0,*63
1486076796.32,9681,9.31,73010.0,-4.85,-6.05,-6.05,0,*6F
1486076797.57,9682,9.31,73002.0,-4.85,-6.13,-5.93,0,*67
1486076798.78,9683,9.31,73006.5,-4.85,-6.05,-6.01,0,*69
1486076799.99,9684,9.31,73000.3,-4.85,-6.13,-6.01,0,*69
1486076801.2,9685,9.31,73004.0,-4.85,-6.05,-6.05,0,*6B
1486076802.42,9686,9.31,73006.5,-4.85,-6.05,-6.01,0,*6C
1486076803.63,9687,9.31,73002.5,-4.85,-6.13,-6.05,0,*6E
1486076804.87,9688,9.31,72992.8,-4.85,-6.27,-6.13,0,*61
1486076806.1,9689,9.31,73004.0,-4.85,-6.27,-6.13,0,*60
1486076807.31,9690,9.31,73004.8,-4.83,-6.27,-6.13,0,*6E
1486076808.53,9691,9.31,73008.8,-4.85,-6.31,-6.13,0,*6E
1486076809.77,9692,9.31,73012.3,-4.85,-6.19,-6.05,0,*60
1486076810.96,9693,9.31,73000.8,-4.83,-6.31,-6.13,0,*6A
1486076812.2,9694,9.31,73006.3,-4.85,-6.39,-6.19,0,*69
1486076813.42,9695,9.31,73008.3,-4.83,-6.31,-6.19,0,*66
1486076814.61,9696,9.31,73014.5,-4.83,-6.31,-6.05,0,*68
1486076815.8,9697,9.31,73004.0,-4.87,-6.31,-6.09,0,*61
1486076817.01,9698,9.31,73002.5,-4.85,-6.31,-6.05,0,*60
1486076818.25,9699,9.31,73012.3,-4.85,-6.27,-6.05,0,*66
1486076819.48,9700,9.31,73010.5,-4.85,-6.27,-6.05,0,*67
1486076820.73,9701,9.31,73008.0,-4.83,-6.19,-5.93,0,*61
1486076822.0,9702,9.31,73012.3,-4.85,-6.19,-5.93,0,*64
1486076823.21,9703,9.31,73018.3,-4.85,-6.13,-6.01,0,*67
1486076824.45,9704,9.31,73020.0,-4.85,-6.05,-5.93,0,*6F
1486076825.67,9705,9.31,73022.3,-4.83,-6.05,-5.93,0,*68
1486076826.88,9706,9.31,73018.3,-4.85,-6.05,-6.01,0,*65
1486076828.09,9707,9.31,73006.8,-4.85,-6.05,-6.01,0,*64
1486076829.31,9708,9.31,73010.3,-4.85,-6.13,-6.05,0,*68
1486076830.52,9709,9.31,73014.0,-4.83,-6.19,-6.13,0,*62
1486076831.76,9710,9.31,73012.0,-4.85,-6.19,-6.05,0,*6B
1486076833.0,9711,9.31,73028.0,-4.85,-6.19,-6.13,0,*6D
1486076834.22,9712,9.31,73016.0,-4.83,-6.19,-6.13,0,*68
1486076835.46,9713,9.31,73010.8,-4.85,-6.39,-6.27,0,*6A
1486076836.68,9714,9.31,73014.5,-4.83,-6.51,-6.27,0,*65
1486076837.89,9715,9.31,73006.8,-4.83,-6.43,-6.27,0,*67
1486076839.11,9716,9.31,73012.5,-4.83,-6.51,-6.27,0,*67
1486076840.3,9717,9.31,73016.0,-4.83,-6.55,-6.39,0,*6D
1486076841.49,9718,9.31,73012.3,-4.83,-6.55,-6.39,0,*62
1486076842.71,9719,9.31,73016.3,-4.85,-6.59,-6.43,0,*64
1486076843.9,9720,9.31,73018.0,-4.83,-6.73,-6.51,0,*63
1486076845.12,9721,9.31,73028.0,-4.85,-6.85,-6.55,0,*69
1486076846.36,9722,9.31,73026.0,-4.85,-7.05,-6.69,0,*6C
1486076847.57,9723,9.31,73032.5,-4.85,-7.19,-6.69,0,*60
1486076848.76,9724,9.31,73024.5,-4.83,-7.23,-6.73,0,*63
1486076849.98,9725,9.31,73026.3,-4.85,-7.23,-6.73,0,*64
1486076851.19,9726,9.31,73028.8,-4.83,-7.31,-6.73,0,*62
1486076852.4,9727,9.31,73028.3,-4.83,-7.39,-6.73,0,*6B
1486076853.61,9728,9.31,73024.8,-4.83,-7.35,-6.69,0,*63
1486076854.83,9729,9.31,73036.0,-4.83,-7.31,-6.55,0,*69
1486076856.02,9730,9.31,73030.0,-4.83,-7.23,-6.43,0,*65
1486076857.24,9731,9.31,73030.3,-4.85,-7.19,-6.43,0,*6B
1486076858.46,9732,9.31,73036.8,-4.83,-6.93,-6.31,0,*68
1486076859.71,9733,9.25,73018.3,-4.85,-6.69,-6.19,0,*60
1486076860.93,9734,9.31,73014.8,-4.83,-6.51,-6.19,0,*6A
1486076862.12,9735,9.31,73012.0,-4.83,-6.43,-6.05,0,*65
1486076863.3,9736,9.31,73018.3,-4.83,-6.31,-6.05,0,*63
1486076864.55,9737,9.31,73010.0,-4.85,-6.19,-6.05,0,*6E
1486076865.76,9738,9.31,73002.8,-4.83,-6.19,-6.05,0,*67
1486076866.95,9739,9.31,72998.3,-4.83,-6.13,-6.05,0,*6C
1486076868.16,9740,9.31,73002.0,-4.81,-6.09,-5.97,0,*63
1486076869.41,9741,9.31,73004.3,-4.85,-6.13,-5.93,0,*69
1486076870.65,9742,9.31,72992.0,-4.85,-6.05,-5.93,0,*6D
1486076871.89,9743,9.31,72998.5,-4.85,-6.05,-5.93,0,*6C
1486076873.13,9744,9.31,73006.3,-4.85,-6.01,-5.93,0,*6F
1486076874.35,9745,9.31,73008.5,-4.83,-6.01,-5.93,0,*68
1486076875.57,9746,9.31,73008.3,-4.85,-6.13,-6.01,0,*66
1486076876.75,9747,9.31,73018.0,-4.83,-6.05,-6.05,0,*62
1486076877.94,9748,9.31,73012.5,-4.83,-6.13,-6.13,0,*6D
1486076879.18,9749,9.31,73006.0,-4.83,-6.27,-6.27,0,*6C
1486076880.37,9750,9.25,73010.3,-4.83,-6.39,-6.31,0,*6C
1486076881.58,9751,9.31,73008.0,-4.83,-6.39,-6.27,0,*6A
1486076882.8,9752,9.31,73002.3,-4.83,-6.43,-6.27,0,*64
1486076883.99,9753,9.31,73018.5,-4.83,-6.59,-6.39,0,*61
1486076885.18,9754,9.31,73016.8,-4.83,-6.59,-6.31,0,*6E
1486076886.43,9755,9.31,73026.8,-4.85,-6.59,-6.27,0,*6E
1486076887.64,9756,9.31,73016.5,-4.83,-6.43,-6.27,0,*60
1486076888.84,9757,9.31,73004.5,-4.83,-6.51,-6.31,0,*65
1486076890.04,9758,9.31,73014.5,-4.83,-6.51,-6.31,0,*6A
1486076891.23,9759,9.25,73018.8,-4.83,-6.55,-6.39,0,*67
1486076892.42,9760,9.31,73020.8,-4.83,-6.55,-6.31,0,*65
1486076893.64,9761,9.31,73018.8,-4.83,-6.43,-6.19,0,*69
1486076894.86,9762,9.31,73016.0,-4.83,-6.39,-6.19,0,*67
1486076896.06,9763,9.31,73016.0,-4.83,-6.43,-6.31,0,*61
1486076897.25,9764,9.31,73016.0,-4.83,-6.59,-6.55,0,*6F
1486076898.45,9765,9.31,73024.8,-4.83,-7.19,-6.81,0,*62
1486076899.66,9766,9.31,73022.0,-4.83,-7.61,-6.85,0,*6A
1486076900.88,9767,9.31,73032.5,-4.83,-7.65,-6.69,0,*6D
1486076902.09,9768,9.31,73032.0,-4.83,-7.31,-6.69,0,*63
1486076903.27,9769,9.25,73028.8,-4.83,-7.23,-6.69,0,*61
1486076904.46,9770,9.31,73034.0,-4.83,-7.23,-6.73,0,*62
1486076905.68,9771,9.31,73026.8,-4.83,-7.65,-6.85,0,*68
1486076906.89,9772,9.31,73030.5,-4.83,-8.17,-6.97,0,*62
1486076908.11,9773,9.31,73032.8,-4.83,-8.41,-6.97,0,*60
1486076909.35,9774,9.31,73028.0,-4.85,-8.85,-7.05,0,*63
1486076910.59,9775,9.31,73016.0,-4.83,-8.81,-6.97,0,*6A
1486076911.81,9776,9.31,73026.3,-4.83,-8.85,-6.93,0,*69
1486076913.01,9777,9.25,73024.0,-4.83,-8.71,-6.81,0,*60
1486076914.2,9778,9.31,73030.3,-4.83,-8.45,-6.69,0,*6E
1486076915.39,9779,9.25,73024.0,-4.83,-8.33,-6.55,0,*61
1486076916.61,9780,9.31,73034.8,-4.85,-8.17,-6.43,0,*60
1486076917.83,9781,9.31,73036.3,-4.83,-7.73,-6.43,0,*6A
1486076919.02,9782,9.31,73032.5,-4.83,-7.23,-6.39,0,*61
1486076920.21,9783,9.31,73040.0,-4.83,-6.85,-6.31,0,*65
1486076921.43,9784,9.31,73036.0,-4.85,-6.81,-6.39,0,*68
1486076922.65,9785,9.31,73034.5,-4.85,-6.73,-6.39,0,*64
1486076923.86,9786,9.31,73038.0,-4.85,-6.73,-6.43,0,*6A